GLO9609 SBCY-SBGR

Flight info

Callsign GLO9609
Flight time 1h 48m
Altitude 37000
Route DIKUN UZ82 ANSOK UZ42 ZARES
Aircraft B738/M-SDFGIKLORWXY/LB1

Departure

Time 2026-04-22 16:29
Airport Várzea Grande–Marechal Rondon International Airport (SBCY)

Arrival

Time 2026-04-22 18:18
Airport São Paulo/Guarulhos–Governor André Franco Montoro International Airport (SBGR)
Time Latitude Longitude Altitude Speed Heading
2026-04-22 16:08 -15.64862 -56.12085 619 ft 0 kts 243°
2026-04-22 16:21 -15.64858 -56.12071 619 ft 2 kts 273°
2026-04-22 16:21 -15.64861 -56.12056 618 ft 2 kts 301°
2026-04-22 16:21 -15.64867 -56.12046 618 ft 1 kts 272°
2026-04-22 16:21 -15.64863 -56.12034 618 ft 1 kts 213°
2026-04-22 16:22 -15.64845 -56.12038 618 ft 2 kts 146°
2026-04-22 16:22 -15.64834 -56.12043 619 ft 0 kts 156°
2026-04-22 16:22 -15.64832 -56.12044 619 ft 0 kts 155°
2026-04-22 16:24 -15.64840 -56.12041 618 ft 4 kts 155°
2026-04-22 16:25 -15.64888 -56.12014 617 ft 11 kts 154°
2026-04-22 16:25 -15.65048 -56.11932 613 ft 13 kts 153°
2026-04-22 16:25 -15.65071 -56.11848 610 ft 14 kts 62°
2026-04-22 16:26 -15.64995 -56.11830 612 ft 11 kts 338°
2026-04-22 16:26 -15.64928 -56.11863 613 ft 11 kts 332°
2026-04-22 16:26 -15.64853 -56.11904 616 ft 13 kts 333°
2026-04-22 16:26 -15.64766 -56.11951 618 ft 13 kts 332°
2026-04-22 16:27 -15.64690 -56.11991 620 ft 10 kts 334°
2026-04-22 16:27 -15.64632 -56.12021 622 ft 8 kts 333°
2026-04-22 16:27 -15.64573 -56.12053 623 ft 13 kts 332°
2026-04-22 16:27 -15.64461 -56.12118 627 ft 23 kts 319°
2026-04-22 16:28 -15.64407 -56.12147 628 ft 0 kts 148°
2026-04-22 16:28 -15.64424 -56.12136 628 ft 18 kts 147°
2026-04-22 16:28 -15.64791 -56.11936 617 ft 97 kts 153°
2026-04-22 16:28 -15.65596 -56.11509 596 ft 161 kts 153°
2026-04-22 16:29 -15.66701 -56.10886 966 ft 182 kts 152°
2026-04-22 16:29 -15.67751 -56.10298 1779 ft 173 kts 154°
2026-04-22 16:29 -15.68905 -56.09713 2065 ft 190 kts 153°
2026-04-22 16:29 -15.70112 -56.09092 2444 ft 202 kts 152°
2026-04-22 16:30 -15.70987 -56.08629 2646 ft 215 kts 151°
2026-04-22 16:30 -15.72836 -56.07627 3133 ft 236 kts 146°
2026-04-22 16:30 -15.74092 -56.06441 3538 ft 248 kts 124°
2026-04-22 16:30 -15.75065 -56.04930 3977 ft 260 kts 121°
2026-04-22 16:31 -15.76188 -56.03413 4513 ft 270 kts 130°
2026-04-22 16:31 -15.77509 -56.02025 5177 ft 273 kts 134°
2026-04-22 16:31 -15.78891 -56.00640 5873 ft 276 kts 134°
2026-04-22 16:31 -15.80242 -55.99244 6611 ft 277 kts 133°
2026-04-22 16:32 -15.81593 -55.97803 7357 ft 278 kts 132°
2026-04-22 16:32 -15.82931 -55.96350 8072 ft 282 kts 132°
2026-04-22 16:32 -15.84283 -55.94873 8796 ft 285 kts 132°
2026-04-22 16:32 -15.85656 -55.93373 9576 ft 287 kts 132°
2026-04-22 16:33 -15.87037 -55.91870 10317 ft 290 kts 132°
2026-04-22 16:33 -15.88461 -55.90319 10771 ft 305 kts 132°
2026-04-22 16:33 -15.89955 -55.88690 11181 ft 321 kts 132°
2026-04-22 16:33 -15.91541 -55.86962 11624 ft 336 kts 132°
2026-04-22 16:34 -15.93200 -55.85155 12097 ft 348 kts 132°
2026-04-22 16:34 -15.94877 -55.83328 12750 ft 354 kts 132°
2026-04-22 16:34 -15.96579 -55.81474 13506 ft 357 kts 132°
2026-04-22 16:34 -15.98304 -55.79593 14212 ft 361 kts 132°
2026-04-22 16:35 -16.00059 -55.77679 14893 ft 366 kts 132°
2026-04-22 16:35 -16.01793 -55.75787 15627 ft 368 kts 132°
2026-04-22 16:35 -16.03566 -55.73850 16340 ft 371 kts 132°
2026-04-22 16:35 -16.05347 -55.71903 16986 ft 375 kts 133°
2026-04-22 16:36 -16.07162 -55.69920 17663 ft 378 kts 133°
2026-04-22 16:36 -16.08995 -55.67916 18269 ft 382 kts 133°
2026-04-22 16:36 -16.10831 -55.65909 18902 ft 386 kts 133°
2026-04-22 16:36 -16.12693 -55.63873 19469 ft 390 kts 133°
2026-04-22 16:37 -16.14565 -55.61826 20054 ft 394 kts 133°
2026-04-22 16:37 -16.16458 -55.59755 20595 ft 398 kts 133°
2026-04-22 16:37 -16.18387 -55.57645 21189 ft 401 kts 133°
2026-04-22 16:37 -16.20328 -55.55522 21732 ft 405 kts 133°
2026-04-22 16:38 -16.22261 -55.53405 22239 ft 409 kts 133°
2026-04-22 16:38 -16.24225 -55.51255 22786 ft 412 kts 133°
2026-04-22 16:38 -16.26207 -55.49085 23288 ft 416 kts 133°
2026-04-22 16:38 -16.28203 -55.46898 23824 ft 418 kts 133°
2026-04-22 16:39 -16.30222 -55.44685 24313 ft 421 kts 133°
2026-04-22 16:39 -16.32256 -55.42455 24766 ft 425 kts 132°
2026-04-22 16:39 -16.34284 -55.40231 25274 ft 427 kts 132°
2026-04-22 16:39 -16.36345 -55.37970 25727 ft 430 kts 132°
2026-04-22 16:40 -16.38421 -55.35690 26160 ft 433 kts 131°
2026-04-22 16:40 -16.40478 -55.33429 26600 ft 436 kts 131°
2026-04-22 16:40 -16.44682 -55.28809 27452 ft 442 kts 130°
2026-04-22 16:41 -16.46823 -55.26455 27887 ft 445 kts 130°
2026-04-22 16:41 -16.48943 -55.24121 28261 ft 448 kts 130°
2026-04-22 16:41 -16.51099 -55.21750 28711 ft 450 kts 130°
2026-04-22 16:41 -16.53262 -55.19367 29080 ft 454 kts 130°
2026-04-22 16:42 -16.55442 -55.16965 29458 ft 457 kts 130°
2026-04-22 16:42 -16.57630 -55.14554 29905 ft 459 kts 130°
2026-04-22 16:42 -16.59811 -55.12151 30580 ft 455 kts 131°
2026-04-22 16:42 -16.61976 -55.09766 31174 ft 452 kts 131°
2026-04-22 16:43 -16.64153 -55.07366 31656 ft 452 kts 131°
2026-04-22 16:43 -16.66294 -55.05004 32126 ft 452 kts 131°
2026-04-22 16:43 -16.68477 -55.02596 32637 ft 451 kts 131°
2026-04-22 16:43 -16.70603 -55.00250 33158 ft 449 kts 131°
2026-04-22 16:44 -16.72757 -54.97870 33697 ft 448 kts 132°
2026-04-22 16:44 -16.74903 -54.95499 34206 ft 446 kts 131°
2026-04-22 16:44 -16.77007 -54.93173 34696 ft 445 kts 132°
2026-04-22 16:44 -16.79135 -54.90819 35167 ft 444 kts 132°
2026-04-22 16:45 -16.81269 -54.88458 35613 ft 443 kts 132°
2026-04-22 16:45 -16.83357 -54.86149 36018 ft 442 kts 132°
2026-04-22 16:45 -16.85509 -54.83768 36395 ft 442 kts 133°
2026-04-22 16:45 -16.87624 -54.81426 36735 ft 442 kts 132°
2026-04-22 16:46 -16.89777 -54.79040 36992 ft 443 kts 133°
2026-04-22 16:46 -16.94036 -54.74317 36998 ft 443 kts 133°
2026-04-22 16:47 -16.98260 -54.69631 36995 ft 442 kts 133°
2026-04-22 16:47 -17.02498 -54.64930 36997 ft 441 kts 133°
2026-04-22 16:48 -17.06716 -54.60246 37003 ft 441 kts 133°
2026-04-22 16:48 -17.10934 -54.55559 36997 ft 441 kts 133°
2026-04-22 16:49 -17.15171 -54.50847 37004 ft 442 kts 133°
2026-04-22 16:49 -17.19378 -54.46165 37015 ft 442 kts 132°
2026-04-22 16:50 -17.23628 -54.41432 37011 ft 442 kts 132°
2026-04-22 16:50 -17.27830 -54.36750 37010 ft 442 kts 132°
2026-04-22 16:51 -17.32095 -54.31994 37009 ft 442 kts 132°
2026-04-22 16:51 -17.36343 -54.27254 37019 ft 443 kts 132°
2026-04-22 16:52 -17.40584 -54.22516 37018 ft 444 kts 132°
2026-04-22 16:52 -17.44814 -54.17788 37026 ft 443 kts 132°
2026-04-22 16:53 -17.49020 -54.13083 37037 ft 443 kts 132°
2026-04-22 16:53 -17.53267 -54.08330 37030 ft 444 kts 132°
2026-04-22 16:54 -17.57480 -54.03611 37027 ft 443 kts 132°
2026-04-22 16:54 -17.61737 -53.98839 37016 ft 444 kts 132°
2026-04-22 16:55 -17.65971 -53.94091 37019 ft 444 kts 132°
2026-04-22 16:55 -17.70209 -53.89333 37018 ft 445 kts 132°
2026-04-22 16:56 -17.74450 -53.84569 37022 ft 445 kts 132°
2026-04-22 16:56 -17.78670 -53.79825 37020 ft 444 kts 132°
2026-04-22 16:57 -17.82905 -53.75061 37025 ft 444 kts 132°
2026-04-22 16:57 -17.87135 -53.70298 37017 ft 445 kts 132°
2026-04-22 16:58 -17.90679 -53.66306 37014 ft 446 kts 132°
2026-04-22 16:58 -17.95611 -53.60744 37017 ft 446 kts 132°
2026-04-22 16:59 -17.99876 -53.55931 37015 ft 446 kts 132°
2026-04-22 16:59 -18.04096 -53.51166 37025 ft 446 kts 132°
2026-04-22 17:00 -18.08340 -53.46369 37037 ft 446 kts 132°
2026-04-22 17:00 -18.14700 -53.39176 37049 ft 447 kts 132°
2026-04-22 17:01 -18.18936 -53.34380 37068 ft 448 kts 132°
2026-04-22 17:01 -18.23183 -53.29567 37084 ft 448 kts 132°
2026-04-22 17:02 -18.27404 -53.24778 37098 ft 448 kts 132°
2026-04-22 17:02 -18.31668 -53.19940 37099 ft 448 kts 132°
2026-04-22 17:03 -18.35913 -53.15119 37101 ft 447 kts 132°
2026-04-22 17:03 -18.40131 -53.10326 37097 ft 447 kts 132°
2026-04-22 17:04 -18.44372 -53.05500 37106 ft 448 kts 132°
2026-04-22 17:04 -18.48629 -53.00654 37098 ft 449 kts 132°
2026-04-22 17:05 -18.52887 -52.95804 37095 ft 450 kts 132°
2026-04-22 17:05 -18.57141 -52.90953 37096 ft 449 kts 132°
2026-04-22 17:06 -18.61390 -52.86105 37095 ft 448 kts 133°
2026-04-22 17:06 -18.65614 -52.81281 37094 ft 449 kts 133°
2026-04-22 17:07 -18.69878 -52.76407 37099 ft 449 kts 133°
2026-04-22 17:07 -18.74104 -52.71573 37099 ft 448 kts 133°
2026-04-22 17:08 -18.78354 -52.66707 37093 ft 450 kts 133°
2026-04-22 17:08 -18.82582 -52.61864 37085 ft 449 kts 133°
2026-04-22 17:09 -18.86829 -52.56996 37078 ft 449 kts 133°
2026-04-22 17:09 -18.91077 -52.52121 37073 ft 449 kts 133°
2026-04-22 17:10 -18.95306 -52.47266 37068 ft 448 kts 133°
2026-04-22 17:10 -18.99535 -52.42405 37067 ft 448 kts 133°
2026-04-22 17:11 -19.03775 -52.37528 37065 ft 449 kts 133°
2026-04-22 17:11 -19.08010 -52.32653 37063 ft 449 kts 133°
2026-04-22 17:12 -19.12233 -52.27788 37059 ft 448 kts 133°
2026-04-22 17:12 -19.16454 -52.22920 37059 ft 450 kts 133°
2026-04-22 17:13 -19.20682 -52.18040 37057 ft 449 kts 133°
2026-04-22 17:13 -19.24902 -52.13167 37055 ft 449 kts 133°
2026-04-22 17:14 -19.29115 -52.08298 37056 ft 449 kts 133°
2026-04-22 17:14 -19.33352 -52.03396 37053 ft 448 kts 133°
2026-04-22 17:15 -19.37573 -51.98510 37051 ft 449 kts 133°
2026-04-22 17:15 -19.41803 -51.93609 37055 ft 450 kts 133°
2026-04-22 17:16 -19.46012 -51.88728 37060 ft 449 kts 133°
2026-04-22 17:16 -19.50249 -51.83809 37066 ft 449 kts 133°
2026-04-22 17:17 -19.54453 -51.78926 37066 ft 450 kts 133°
2026-04-22 17:17 -19.58673 -51.74020 37064 ft 450 kts 133°
2026-04-22 17:18 -19.62879 -51.69126 37046 ft 450 kts 133°
2026-04-22 17:18 -19.67188 -51.64290 37033 ft 449 kts 137°
2026-04-22 17:19 -19.76720 -51.55678 37025 ft 450 kts 142°
2026-04-22 17:20 -19.86409 -51.47208 37018 ft 449 kts 141°
2026-04-22 17:21 -19.93621 -51.40815 37014 ft 450 kts 141°
2026-04-22 17:22 -20.00844 -51.34384 37013 ft 451 kts 141°
2026-04-22 17:23 -20.08037 -51.27965 37010 ft 449 kts 141°
2026-04-22 17:23 -20.15271 -51.21500 37005 ft 452 kts 141°
2026-04-22 17:24 -20.20077 -51.17201 37000 ft 451 kts 141°
2026-04-22 17:24 -20.24902 -51.12881 36995 ft 451 kts 141°
2026-04-22 17:25 -20.29708 -51.08574 36993 ft 451 kts 141°
2026-04-22 17:25 -20.34531 -51.04248 36993 ft 452 kts 141°
2026-04-22 17:26 -20.39334 -50.99937 36993 ft 451 kts 141°
2026-04-22 17:26 -20.44161 -50.95601 37000 ft 451 kts 141°
2026-04-22 17:27 -20.48951 -50.91294 37002 ft 451 kts 141°
2026-04-22 17:27 -20.53765 -50.86961 37000 ft 450 kts 141°
2026-04-22 17:28 -20.58546 -50.82655 37002 ft 451 kts 142°
2026-04-22 17:28 -20.63354 -50.78323 37001 ft 451 kts 141°
2026-04-22 17:29 -20.68142 -50.74003 37000 ft 451 kts 142°
2026-04-22 17:29 -20.72949 -50.69663 36997 ft 451 kts 142°
2026-04-22 17:30 -20.77756 -50.65319 36998 ft 451 kts 142°
2026-04-22 17:30 -20.82581 -50.60945 36996 ft 451 kts 141°
2026-04-22 17:31 -20.87395 -50.56564 37000 ft 451 kts 141°
2026-04-22 17:31 -20.92165 -50.52217 37007 ft 451 kts 142°
2026-04-22 17:32 -20.96981 -50.47828 37009 ft 452 kts 142°
2026-04-22 17:32 -21.01759 -50.43470 37013 ft 452 kts 142°
2026-04-22 17:33 -21.06569 -50.39079 37018 ft 452 kts 142°
2026-04-22 17:33 -21.11370 -50.34693 37016 ft 451 kts 141°
2026-04-22 17:34 -21.16140 -50.30332 37022 ft 451 kts 141°
2026-04-22 17:34 -21.20940 -50.25938 37024 ft 451 kts 141°
2026-04-22 17:35 -21.25724 -50.21556 37032 ft 452 kts 141°
2026-04-22 17:35 -21.30515 -50.17165 37041 ft 453 kts 141°
2026-04-22 17:36 -21.35350 -50.12733 37047 ft 461 kts 141°
2026-04-22 17:36 -21.40264 -50.08224 37045 ft 461 kts 141°
2026-04-22 17:37 -21.45152 -50.03729 37050 ft 459 kts 141°
2026-04-22 17:37 -21.50007 -49.99262 37052 ft 459 kts 141°
2026-04-22 17:38 -21.54871 -49.94784 37054 ft 459 kts 141°
2026-04-22 17:38 -21.59719 -49.90317 37053 ft 458 kts 141°
2026-04-22 17:39 -21.64562 -49.85851 37050 ft 459 kts 141°
2026-04-22 17:40 -21.71856 -49.79116 37051 ft 459 kts 141°
2026-04-22 17:40 -21.76719 -49.74620 37051 ft 459 kts 141°
2026-04-22 17:41 -21.81540 -49.70158 37049 ft 458 kts 141°
2026-04-22 17:41 -21.86400 -49.65657 37057 ft 459 kts 141°
2026-04-22 17:42 -21.91244 -49.61167 37053 ft 458 kts 142°
2026-04-22 17:42 -21.96060 -49.56695 37048 ft 458 kts 141°
2026-04-22 17:43 -22.00908 -49.52180 37047 ft 458 kts 141°
2026-04-22 17:43 -22.05741 -49.47671 37049 ft 458 kts 141°
2026-04-22 17:44 -22.10437 -49.42981 37043 ft 460 kts 130°
2026-04-22 17:44 -22.13723 -49.37030 37052 ft 465 kts 118°
2026-04-22 17:45 -22.16528 -49.30693 37053 ft 465 kts 117°
2026-04-22 17:45 -22.19286 -49.24356 37056 ft 466 kts 117°
2026-04-22 17:46 -22.22113 -49.18042 37066 ft 466 kts 118°
2026-04-22 17:46 -22.24979 -49.11777 37064 ft 465 kts 118°
2026-04-22 17:47 -22.27861 -49.05534 37079 ft 465 kts 118°
2026-04-22 17:47 -22.30782 -48.99223 37085 ft 466 kts 119°
2026-04-22 17:48 -22.33672 -48.92976 37075 ft 465 kts 119°
2026-04-22 17:48 -22.36559 -48.86729 37071 ft 465 kts 119°
2026-04-22 17:49 -22.39445 -48.80480 37076 ft 466 kts 119°
2026-04-22 17:49 -22.42353 -48.74176 37072 ft 466 kts 119°
2026-04-22 17:50 -22.45226 -48.67934 37071 ft 466 kts 119°
2026-04-22 17:50 -22.48121 -48.61637 37073 ft 467 kts 119°
2026-04-22 17:51 -22.51014 -48.55338 37069 ft 466 kts 119°
2026-04-22 17:51 -22.53914 -48.49012 37070 ft 467 kts 119°
2026-04-22 17:52 -22.56810 -48.42691 37070 ft 467 kts 119°
2026-04-22 17:52 -22.59698 -48.36380 37070 ft 467 kts 119°
2026-04-22 17:52 -22.61115 -48.33278 36843 ft 463 kts 119°
2026-04-22 17:53 -22.62533 -48.30168 36412 ft 457 kts 119°
2026-04-22 17:53 -22.63943 -48.27076 35853 ft 454 kts 119°
2026-04-22 17:53 -22.65352 -48.23985 35152 ft 454 kts 119°
2026-04-22 17:53 -22.66739 -48.20942 34407 ft 454 kts 119°
2026-04-22 17:54 -22.68138 -48.17877 33633 ft 456 kts 119°
2026-04-22 17:54 -22.69530 -48.14823 32878 ft 456 kts 119°
2026-04-22 17:54 -22.70922 -48.11762 32365 ft 452 kts 119°
2026-04-22 17:54 -22.72323 -48.08680 31799 ft 449 kts 119°
2026-04-22 17:55 -22.73636 -48.05626 31213 ft 449 kts 116°
2026-04-22 17:55 -22.74761 -48.02489 30623 ft 448 kts 112°
2026-04-22 17:55 -22.75743 -47.99280 30023 ft 447 kts 110°
2026-04-22 17:55 -22.76687 -47.96078 29410 ft 445 kts 113°
2026-04-22 17:56 -22.77820 -47.93034 29071 ft 434 kts 118°
2026-04-22 17:56 -22.79105 -47.90105 28791 ft 437 kts 120°
2026-04-22 17:56 -22.80501 -47.87158 28413 ft 434 kts 121°
2026-04-22 17:56 -22.81907 -47.84280 27857 ft 433 kts 121°
2026-04-22 17:57 -22.83319 -47.81421 27305 ft 431 kts 122°
2026-04-22 17:57 -22.84718 -47.78583 27057 ft 422 kts 122°
2026-04-22 17:57 -22.86111 -47.75749 27060 ft 425 kts 121°
2026-04-22 17:57 -22.87517 -47.72879 27057 ft 431 kts 121°
2026-04-22 17:58 -22.88902 -47.70042 27055 ft 430 kts 121°
2026-04-22 17:58 -22.90293 -47.67175 27059 ft 428 kts 121°
2026-04-22 17:58 -22.91683 -47.64298 27060 ft 428 kts 121°
2026-04-22 17:58 -22.93041 -47.61479 26742 ft 428 kts 121°
2026-04-22 17:59 -22.94428 -47.58595 26167 ft 427 kts 121°
2026-04-22 17:59 -22.95799 -47.55741 25584 ft 426 kts 121°
2026-04-22 17:59 -22.97156 -47.52914 25000 ft 424 kts 121°
2026-04-22 17:59 -22.98516 -47.50079 24408 ft 423 kts 121°
2026-04-22 18:00 -22.99420 -47.48192 24128 ft 419 kts 121°
2026-04-22 18:00 -23.01176 -47.44518 23675 ft 409 kts 121°
2026-04-22 18:00 -23.02486 -47.41777 23184 ft 406 kts 121°
2026-04-22 18:00 -23.03779 -47.39075 22705 ft 403 kts 121°
2026-04-22 18:01 -23.05057 -47.36404 22215 ft 400 kts 121°
2026-04-22 18:01 -23.06338 -47.33727 21782 ft 397 kts 120°
2026-04-22 18:01 -23.07605 -47.31078 21360 ft 393 kts 120°
2026-04-22 18:01 -23.08870 -47.28432 20908 ft 389 kts 120°
2026-04-22 18:02 -23.10098 -47.25859 20447 ft 387 kts 120°
2026-04-22 18:02 -23.11330 -47.23276 19992 ft 383 kts 120°
2026-04-22 18:02 -23.12563 -47.20688 19542 ft 380 kts 120°
2026-04-22 18:02 -23.13753 -47.18190 19150 ft 376 kts 120°
2026-04-22 18:03 -23.14995 -47.15698 18713 ft 371 kts 123°
2026-04-22 18:03 -23.16347 -47.13345 18272 ft 367 kts 126°
2026-04-22 18:03 -23.17778 -47.11049 17852 ft 363 kts 127°
2026-04-22 18:03 -23.19204 -47.08812 17449 ft 359 kts 127°
2026-04-22 18:04 -23.20617 -47.06583 17024 ft 356 kts 127°
2026-04-22 18:04 -23.22016 -47.04351 16587 ft 354 kts 126°
2026-04-22 18:04 -23.23378 -47.02155 16122 ft 352 kts 126°
2026-04-22 18:04 -23.24745 -46.99935 15667 ft 351 kts 126°
2026-04-22 18:05 -23.26093 -46.97734 15236 ft 348 kts 125°
2026-04-22 18:05 -23.27411 -46.95575 15050 ft 337 kts 125°
2026-04-22 18:05 -23.28682 -46.93487 14928 ft 325 kts 125°
2026-04-22 18:05 -23.29904 -46.91483 14827 ft 313 kts 125°
2026-04-22 18:06 -23.31085 -46.89545 14625 ft 305 kts 126°
2026-04-22 18:06 -23.32263 -46.87617 14282 ft 302 kts 125°
2026-04-22 18:06 -23.33418 -46.85726 13913 ft 301 kts 125°
2026-04-22 18:06 -23.34565 -46.83848 13559 ft 298 kts 125°
2026-04-22 18:07 -23.35711 -46.81970 13197 ft 297 kts 125°
2026-04-22 18:07 -23.36847 -46.80106 12835 ft 295 kts 125°
2026-04-22 18:07 -23.37976 -46.78253 12491 ft 293 kts 124°
2026-04-22 18:07 -23.39096 -46.76412 12154 ft 290 kts 125°
2026-04-22 18:08 -23.40202 -46.74576 11844 ft 298 kts 123°
2026-04-22 18:08 -23.41326 -46.72611 11760 ft 310 kts 122°
2026-04-22 18:08 -23.42504 -46.70623 11537 ft 307 kts 125°
2026-04-22 18:08 -23.43484 -46.68629 11432 ft 291 kts 105°
2026-04-22 18:09 -23.43534 -46.66539 11343 ft 273 kts 74°
2026-04-22 18:09 -23.42588 -46.64843 11211 ft 257 kts 40°
2026-04-22 18:09 -23.41011 -46.64079 10970 ft 246 kts
2026-04-22 18:09 -23.39355 -46.64388 10632 ft 236 kts 340°
2026-04-22 18:10 -23.37780 -46.64759 10032 ft 236 kts
2026-04-22 18:10 -23.36128 -46.64602 9326 ft 236 kts 359°
2026-04-22 18:10 -23.34570 -46.65030 8649 ft 236 kts 328°
2026-04-22 18:10 -23.33442 -46.66264 8018 ft 232 kts 296°
2026-04-22 18:11 -23.33094 -46.67937 7368 ft 229 kts 264°
2026-04-22 18:11 -23.33533 -46.69538 6998 ft 216 kts 239°
2026-04-22 18:11 -23.34500 -46.70792 6999 ft 219 kts 216°
2026-04-22 18:11 -23.35881 -46.71484 6758 ft 218 kts 187°
2026-04-22 18:12 -23.37375 -46.71430 6477 ft 215 kts 166°
2026-04-22 18:12 -23.38760 -46.70845 6250 ft 214 kts 149°
2026-04-22 18:12 -23.39603 -46.70288 6178 ft 213 kts 146°
2026-04-22 18:12 -23.41286 -46.69118 6093 ft 214 kts 147°
2026-04-22 18:13 -23.42550 -46.68276 6025 ft 214 kts 148°
2026-04-22 18:13 -23.43808 -46.67451 5946 ft 201 kts 148°
2026-04-22 18:13 -23.44973 -46.66655 5693 ft 192 kts 141°
2026-04-22 18:13 -23.45857 -46.65621 5536 ft 186 kts 122°
2026-04-22 18:14 -23.46541 -46.64421 5374 ft 188 kts 121°
2026-04-22 18:14 -23.47113 -46.63135 5197 ft 186 kts 104°
2026-04-22 18:14 -23.47125 -46.61740 4910 ft 188 kts 76°
2026-04-22 18:14 -23.46718 -46.60422 4684 ft 177 kts 71°
2026-04-22 18:15 -23.46356 -46.59183 4423 ft 168 kts 75°
2026-04-22 18:15 -23.46050 -46.57988 4212 ft 164 kts 75°
2026-04-22 18:15 -23.45723 -46.56777 3996 ft 165 kts 74°
2026-04-22 18:15 -23.45398 -46.55587 3785 ft 163 kts 75°
2026-04-22 18:16 -23.45081 -46.54414 3585 ft 163 kts 75°
2026-04-22 18:16 -23.44759 -46.53225 3360 ft 162 kts 75°
2026-04-22 18:16 -23.44433 -46.52055 3193 ft 161 kts 75°
2026-04-22 18:16 -23.44113 -46.50900 2943 ft 157 kts 75°
2026-04-22 18:17 -23.43822 -46.49765 2769 ft 156 kts 76°
2026-04-22 18:17 -23.43506 -46.48617 2562 ft 158 kts 73°
2026-04-22 18:17 -23.43198 -46.47495 2457 ft 147 kts 75°
2026-04-22 18:17 -23.42988 -46.46677 2447 ft 62 kts 75°
2026-04-22 18:18 -23.42892 -46.46351 2448 ft 38 kts 73°
2026-04-22 18:18 -23.42800 -46.46197 2448 ft 21 kts 354°
2026-04-22 18:18 -23.42691 -46.46241 2450 ft 12 kts 270°
2026-04-22 18:18 -23.42703 -46.46335 2448 ft 12 kts 251°
2026-04-22 18:19 -23.42733 -46.46427 2446 ft 13 kts 250°
2026-04-22 18:19 -23.42764 -46.46521 2447 ft 12 kts 252°
2026-04-22 18:19 -23.42788 -46.46608 2447 ft 11 kts 254°
2026-04-22 18:19 -23.42809 -46.46689 2447 ft 10 kts 254°
2026-04-22 18:20 -23.42837 -46.46792 2445 ft 18 kts 253°
2026-04-22 18:20 -23.42876 -46.46933 2446 ft 19 kts 253°
2026-04-22 18:20 -23.42912 -46.47066 2447 ft 17 kts 253°
2026-04-22 18:20 -23.42946 -46.47192 2446 ft 17 kts 255°
2026-04-22 18:21 -23.42980 -46.47317 2447 ft 16 kts 250°
2026-04-22 18:21 -23.43017 -46.47443 2448 ft 18 kts 256°
2026-04-22 18:21 -23.43049 -46.47579 2448 ft 17 kts 256°
2026-04-22 18:21 -23.43080 -46.47704 2448 ft 16 kts 254°
2026-04-22 18:22 -23.43113 -46.47816 2447 ft 15 kts 253°
2026-04-22 18:22 -23.43143 -46.47926 2447 ft 14 kts 254°
2026-04-22 18:22 -23.43170 -46.48027 2447 ft 13 kts 253°
2026-04-22 18:22 -23.43197 -46.48123 2448 ft 13 kts 252°
2026-04-22 18:23 -23.43224 -46.48223 2448 ft 14 kts 254°
2026-04-22 18:23 -23.43251 -46.48329 2448 ft 14 kts 262°
2026-04-22 18:23 -23.43200 -46.48419 2445 ft 15 kts 296°
2026-04-22 18:24 -23.43172 -46.48658 2443 ft 13 kts 274°
2026-04-22 18:24 -23.43158 -46.48751 2441 ft 11 kts 300°
2026-04-22 18:24 -23.43023 -46.48769 2441 ft 10 kts
2026-04-22 18:25 -23.42952 -46.48760 2442 ft 9 kts
2026-04-22 18:25 -23.42886 -46.48754 2444 ft 9 kts
2026-04-22 18:25 -23.42829 -46.48768 2445 ft 10 kts 304°
2026-04-22 18:26 -23.42817 -46.48838 2443 ft 0 kts 276°